Location: Fernhill
(41.0167°S, 175.6333°E)
Time: 16:19:24
(UTC+00:00)

Cosmos 1833 Rocket - Pass Details

Date: 16 February 2026
Orbit: 832 x 837 km, 71.0° (Epoch: 8 March)

Event Time Altitude Azimuth Distance (km) Brightness Sun altitude
Exits shadow 13:29:57 39° 183° (S) 1,255 3.9 -35.1°
Drops below altitude 10° 13:33:37 10° 163° (SSE) 2,478 5.9 -34.9°
Sets 13:36:08 0° 159° (SSE) 3,419 6.9 -34.7°
